Location: A�t �Alizem
(31.2076°N, 8.7872°W)
Time: 11:00:57
(UTC+00:00)

Daily predictions for brighter satellites

Satellite Brightness Start Highest point End
(mag) Time Altitude Azimuth Time Altitude Azimuth Time Altitude Azimuth
ADEOS Rocket 4.5 17:45:54 10° N 17:53:24 54° WNW 18:00:46 10° SW
COSMO-SKYMED 1 3.7 17:51:16 10° NE 17:54:49 24° E 17:58:20 10° SSE
Cosmos 1151 Rocket 3.7 17:50:59 10° SSE 17:54:52 34° E 17:58:44 10° NNE
SL-24 R/B - RUBIN 2 4.2 17:48:56 10° NNW 17:54:55 67° ENE 18:00:08 10° SE
NOAA 12 4.2 17:50:55 10° SSE 17:56:05 54° ENE 18:01:16 10° N
BREEZE-M DEB (TANK) 3.0 17:56:18 10° SW 18:02:56 53° SE 18:05:56 10° ENE
X-37B 0.8 18:01:59 10° WSW 18:05:07 65° NW 18:08:16 10° NE
ERS-2 2.3 18:04:15 10° NNE 18:07:50 53° ESE 18:11:24 10° S
Okean O Rocket 1.5 18:05:11 10° SSE 18:09:29 68° ENE 18:13:49 10° N
Cosmos 1328 Rocket 3.8 18:06:09 10° SSE 18:10:15 46° E 18:14:24 10° NNE
Cosmos 1805 Rocket 3.8 18:05:55 10° N 18:10:21 78° W 18:14:45 10° S
Cosmos 389 Rocket 4.0 18:09:28 10° SSW 18:12:40 37° W 18:15:52 10° N
Cosmos 1933 3.3 18:10:57 10° S 18:14:58 86° E 18:19:02 10° N
Radarsat Rocket 4.3 18:10:35 10° S 18:16:25 73° WSW 18:22:46 10° NNW
Meteor 1-26 Rocket 4.5 18:10:48 10° S 18:16:37 56° E 18:22:29 10° NNE
Cosmos 1666 Rocket 3.7 18:12:47 10° N 18:17:07 52° E 18:21:26 10° SSE
USA 215 3.6 18:11:00 10° NE 18:17:28 67° NW 18:23:56 10° SW
AQUARIUS 4.1 18:14:19 10° SSE 18:18:48 88° ENE 18:23:18 10° NNW
CZ-4B R/B 1.4 18:17:47 10° N 18:20:52 76° WNW 18:24:01 10° SSW
Cosmos 1782 3.1 18:19:06 10° SSE 18:22:48 42° E 18:26:34 10° NNE
Cosmos 2218 Rocket 4.2 18:17:51 10° N 18:23:45 48° E 18:29:39 10° SSE
Cosmos 2278 Rocket 3.5 18:18:32 10° NW 18:23:54 45° WSW 18:29:15 10° S
Cosmos 1812 4.4 18:26:30 10° SE 18:28:12 15° E 18:28:12 15° E
Cosmos 1689 Rocket 2.5 18:27:44 15° NE 18:29:52 38° E 18:32:37 10° S
Cosmos 2366 rocket 4.1 18:24:26 10° N 18:30:26 52° E 18:36:23 10° SSE
CZ-3B R/B 1.8 18:25:31 10° SW 18:31:10 65° NW 18:32:53 17° NNE
Meteor 1-20 Rocket 4.3 18:25:32 10° N 18:31:20 63° E 18:37:03 10° SSE
Cosmos 1356 4.2 18:30:42 10° NNW 18:34:03 55° W 18:37:23 10° S
CZ-2D R/B 4.0 18:31:21 10° SE 18:34:40 29° ENE 18:38:00 10° NNE
Cosmos 1538 Rocket 4.0 18:30:21 10° S 18:35:36 64° ESE 18:40:56 10° NNE
Cosmos 489 Rocket 4.4 18:30:41 10° S 18:36:51 77° ESE 18:43:03 10° NNE
Cosmos 1602 4.2 18:35:42 10° NNE 18:39:20 37° E 18:42:55 10° SSE
CZ-4B R/B 4.1 18:35:11 10° S 18:40:22 50° W 18:45:31 10° NNW
SKYMED 2 3.6 18:38:37 10° N 18:42:58 83° WNW 18:47:18 10° SSW
NOAA 11 4.3 18:38:12 10° S 18:43:37 80° WSW 18:49:04 10° NNW
Cosmos 44 3.9 18:39:00 10° NNW 18:44:03 42° ENE 18:49:09 10° SE
ATLAS 3B CENTAUR R/B 1.0 18:42:25 10° WSW 18:44:08 31° S 18:44:32 28° SSE
Cosmos 1603 3.9 18:39:11 10° S 18:44:34 48° ESE 18:48:32 18° NE
Lacrosse 5 rocket 3.7 18:43:03 10° WNW 18:44:39 12° NW 18:46:15 10° NNW
Cosmos 1633 Rocket 3.0 18:40:36 10° N 18:44:59 87° WSW 18:49:18 10° S
Feng Yun 1-1 Rocket 4.2 18:39:53 10° SSE 18:45:41 72° ENE 18:51:22 10° N
Helios 1A Rocket 4.5 18:47:57 10° SE 18:55:12 - N 18:49:21 19° ESE
Cosmos 1943 3.4 18:46:53 10° S 18:52:16 49° ESE 18:55:34 23° NE
SL-24 R/B 4.0 18:52:42 10° N 18:56:29 64° WNW 19:00:04 10° SSW
CZ-2C R/B 3.2 18:52:33 10° SE 18:57:27 44° ENE 19:02:08 10° N
Meteor 1-25 Rocket 4.4 18:52:09 10° N 18:57:47 76° W 19:03:28 10° S
PSLV R/B 4.0 18:55:06 10° N 18:59:09 77° WNW 19:03:10 10° SSW
MOS 1 Rocket 3.6 18:53:54 10° NNE 18:59:18 62° E 19:04:34 10° S
USA 281 3.5 18:53:30 10° SE 18:59:32 41° ENE 19:05:36 10° N
Cosmos 2369 Rocket 3.2 18:58:27 10° N 19:01:56 26° NE 19:01:56 26° NE
YAOGAN 1 4.3 19:05:23 10° SSE 19:13:52 - N 19:06:35 18° SE
Nadezhda 3 Rocket 3.9 19:04:28 10° S 19:10:44 68° E 19:17:04 10° NNE
CZ-4 R/B 2.7 19:07:27 10° SSE 19:15:50 - N 19:09:10 25° SSE
Sakura Rocket 3.8 19:07:57 10° SW 19:11:45 40° SSE 19:12:38 36° SE
ATLAS CENTAUR R/B 4.0 18:57:23 10° NW 19:14:06 54° NE 19:17:14 35° E
DMSP B5D1-3 4.4 19:11:19 26° NNE 19:14:12 69° ESE 19:19:17 10° S
Cosmos 2228 Rocket 3.0 19:10:33 10° S 19:15:05 71° E 19:16:12 49° NNE
Cosmos 1939 Rocket 4.0 19:13:40 10° S 19:17:19 42° W 19:21:00 10° NNW
Cosmos 2285 Rocket 4.2 19:11:14 10° NNW 19:17:35 75° WSW 19:23:52 10° S
NOSS 3-2 (C) 3.7 19:13:14 10° S 19:17:43 37° ESE 19:17:43 37° ESE
Cosmos 1943 Rocket 2.0 19:14:29 10° NNW 19:20:02 70° ENE 19:25:36 10° SSE
Cosmos 1470 Rocket 4.2 19:19:12 10° NNW 19:23:25 55° W 19:27:37 10° S
CENTAUR R/B 2.6 19:19:07 10° S 19:23:58 44° ESE 19:23:58 44° ESE
CZ-3A R/B 3.3 19:26:40 10° WSW 19:28:29 22° SSW 19:28:29 22° SSW
Cosmos 1821 Rocket 3.9 19:25:33 10° N 19:31:47 70° E 19:38:06 10° SSE
Cosmos 1241 Rocket 4.4 19:25:37 10° NNW 19:32:15 87° ENE 19:38:18 12° SSE
CZ-2C R/B 4.4 19:36:22 17° SSE 19:36:22 17° SSE 19:37:41 10° S
H-2A R/B 3.7 19:31:09 10° SSE 19:40:10 20° N 19:41:42 10° N
Okean-O 3.1 19:35:46 10° S 19:40:07 58° W 19:44:29 10° NNW
Cosmos 923 Rocket 4.1 19:36:09 10° SSW 19:41:18 71° WNW 19:42:08 59° NNW
NOSS 3-2 (A) 3.5 19:40:42 10° SW 19:46:05 65° WNW 19:47:10 54° N
USA 238 DEB 3.9 19:56:19 10° SW 20:02:43 60° WNW 20:03:49 53° NNW
USA 238 3.9 19:56:24 10° SW 20:02:49 61° WNW 20:03:52 54° NNW
Cosmos 1680 Rocket 4.5 20:04:38 10° SSW 20:08:45 44° WSW 20:08:45 44° WSW
